EW7112 Weather Reports


time (UTC)temp
C
wind
direction
speed
KPH
gust
KPH
rain 1hr
cm
rain 24hr
cm
rain mn
cm
humidity
%
barometer
mb
20260505064508 23 117 4.8 14.5 0.00 0.00 0.00 73 983.5
20260505063006 23 110 4.8 14.5 0.00 0.00 0.00 72 983.6
20260505061503 23 162 1.6 11.3 0.00 0.00 0.00 71 983.6
20260505060003 23 200 4.8 12.9 0.00 0.00 0.00 70 983.7
20260505054502 23 214 1.6 9.7 0.00 0.00 0.00 70 983.4
20260505053107 23 184 4.8 12.9 0.00 0.00 0.00 70 983.5
20260505051559 23 155 3.2 11.3 0.00 0.00 0.00 70 983.5
20260505041602 23 219 4.8 19.3 0.00 0.00 0.00 69 983.6
20260505040057 23 225 4.8 16.1 0.00 0.00 0.00 69 983.9
20260505034553 24 180 4.8 17.7 0.00 0.00 0.00 69 983.9
20260505033052 23 186 3.2 16.1 0.00 0.00 0.00 68 983.7
20260505031553 24 121 1.6 11.3 0.00 0.00 0.00 68 983.8
20260505030109 24 79 1.6 14.5 0.00 0.00 0.00 68 983.9
20260505024556 24 192 4.8 14.5 0.00 0.00 0.00 67 983.9
20260505023050 24 136 3.2 14.5 0.00 0.00 0.00 67 983.8
20260505021551 24 203 4.8 17.7 0.00 0.00 0.00 66 983.6
20260505020049 24 265 3.2 14.5 0.00 0.00 0.00 66 983.6
20260505014603 25 85 3.2 9.7 0.00 0.00 0.00 65 983.6
20260505013051 25 172 4.8 16.1 0.00 0.00 0.00 64 983.6
20260505011547 25 195 6.4 22.5 0.00 0.00 0.00 63 983.8
20260505010055 25 239 8.0 17.7 0.00 0.00 0.00 63 983.8
20260505004550 25 107 8.0 25.7 0.00 0.00 0.00 62 983.6
20260505003055 25 215 4.8 22.5 0.00 0.00 0.00 62 983.7
20260505001545 26 240 6.4 17.7 0.00 0.00 0.00 61 983.9
20260505000041 26 332 8.0 22.5 0.00 0.00 0.00 61 984.1
20260504234543 26 175 9.7 25.7 0.00 0.00 0.00 60 984.1
20260504233038 26 195 4.8 24.1 0.00 0.00 0.00 60 984.3
20260504231536 26 104 6.4 24.1 0.00 0.00 0.00 59 984.1
20260504230035 26 212 9.7 24.1 0.00 0.00 0.00 58 984.4
20260504224532 27 136 6.4 24.1 0.00 0.00 0.00 57 984.5
20260504223037 27 264 8.0 22.5 0.00 0.00 0.00 57 984.6
20260504221527 27 174 8.0 29.0 0.00 0.00 0.00 56 984.5
20260504220030 27 207 9.7 27.4 0.00 0.00 0.00 56 984.7
20260504214523 27 237 12.9 25.7 0.00 0.00 0.00 56 985.0
20260504213025 27 152 11.3 22.5 0.00 0.00 0.00 55 985.2
20260504211529 28 72 6.4 24.1 0.00 0.00 0.00 55 985.3
20260504210013 27 210 4.8 24.1 0.00 0.00 0.00 56 985.7
20260504204511 27 265 9.7 25.7 0.00 0.00 0.00 56 986.0
20260504203008 27 83 8.0 17.7 0.00 0.00 0.00 54 986.3
20260504201504 27 96 6.4 19.3 0.00 0.00 0.00 55 986.6
20260504200003 27 182 4.8 20.9 0.00 0.00 0.00 55 986.9
20260504194604 27 238 9.7 22.5 0.00 0.00 0.00 54 987.3
20260504193107 27 149 8.0 29.0 0.00 0.00 0.00 54 987.3
20260504191609 26 217 6.4 19.3 0.00 0.00 0.00 55 987.5
20260504190105 26 247 6.4 27.4 0.00 0.00 0.00 55 988.0
20260504184553 26 219 9.7 24.1 0.00 0.00 0.00 54 988.1
20260504183046 26 250 8.0 24.1 0.00 0.00 0.00 55 988.4
20260504181547 26 178 8.0 25.7 0.00 0.00 0.00 56 988.4
20260504180040 25 208 11.3 20.9 0.00 0.00 0.00 56 988.7
20260504174543 25 177 8.0 25.7 0.00 0.00 0.00 55 989.0
20260504173035 25 160 4.8 19.3 0.00 0.00 0.00 57 989.1
20260504171534 24 187 6.4 25.7 0.00 0.00 0.00 58 989.3
20260504081508 18 229 3.2 11.3 0.00 0.00 0.00 60 991.9